Location: Staunton
(38.1490°N, 79.0720°W)
Time: 03:27:30
(UTC-04:00)

ISS - Pass Details

Date: 19 September 2017
Orbit: 401 x 407 km, 51.6° (Epoch: 23 September)

Event Time Altitude Azimuth Distance (km) Brightness Sun altitude
Exits shadow 05:16:21 24° 350° (N) 897 -2.0 -21.1°
Maximum altitude 05:17:35 32° 32° (NNE) 726 -2.1 -20.9°
Drops below altitude 10° 05:20:34 10° 98° (E) 1,462 -0.1 -20.3°
Sets 05:22:47 0° 108° (ESE) 2,319 0.9 -19.9°
